HST,Max TemperatureF,Mean TemperatureF,Min TemperatureF,Max Dew PointF,MeanDew PointF,Min DewpointF,Max Humidity, Mean Humidity, Min Humidity, Max Sea Level PressureIn, Mean Sea Level PressureIn, Min Sea Level PressureIn, Max VisibilityMiles, Mean VisibilityMiles, Min VisibilityMiles, Max Wind SpeedMPH, Mean Wind SpeedMPH, Max Gust SpeedMPH,PrecipitationIn, CloudCover, Events, WindDirDegrees
2013-5-1,84,78,71,66,63,56,79,60,45,30.06,30.01,29.97,10,10,10,12,5,,0.00,2,,174
2013-5-2,82,78,73,68,67,65,74,67,58,30.07,30.04,30.00,10,10,10,16,8,,0.00,5,,227
2013-5-3,82,78,73,70,66,64,78,68,58,30.06,30.02,29.98,10,10,8,18,10,20,0.03,6,Rain,221
2013-5-4,80,76,73,70,67,65,88,76,65,30.01,29.97,29.91,10,9,2,15,10,,0.00,7,Rain,191
2013-5-5,82,76,71,67,66,64,81,67,53,29.96,29.92,29.87,10,10,10,21,9,23,0.00,4,,190
2013-5-6,82,78,73,68,66,64,76,69,58,29.96,29.91,29.88,10,10,10,18,11,,0.00,3,,184
2013-5-7,82,76,71,68,66,63,78,66,54,29.99,29.95,29.90,10,10,10,12,6,,0.00,0,,312
2013-5-8,84,78,73,69,67,62,73,66,58,30.03,29.98,29.94,10,10,10,10,6,,0.00,2,,224
2013-5-9,84,78,73,70,68,65,76,68,58,30.08,30.01,29.96,10,10,10,13,5,,0.00,5,,346
2013-5-10,82,78,75,72,70,66,79,72,63,30.09,30.04,30.00,10,10,10,12,5,,0.00,6,,189
2013-5-11,82,80,77,71,70,68,82,72,65,30.06,30.03,29.98,10,10,10,12,6,,0.00,6,,188
2013-5-12,84,80,75,72,70,68,83,74,61,30.05,30.01,29.96,10,10,10,17,7,21,0.00,6,Rain,158
2013-5-13,84,80,75,72,69,66,82,73,63,30.04,30.01,29.97,10,10,10,15,7,20,0.01,7,Rain,163
2013-5-14,82,78,73,72,68,65,83,73,63,30.08,30.03,29.99,10,10,10,12,6,17,0.01,6,Rain,170
2013-5-15,84,78,73,70,68,66,85,72,58,30.10,30.05,30.02,10,10,10,12,7,,0.03,5,Rain,136
2013-5-16,84,78,73,68,65,60,73,61,53,30.07,30.04,30.01,10,10,10,14,7,,0.00,1,,153
2013-5-17,84,78,73,67,64,59,71,59,49,30.04,30.00,29.96,10,10,10,13,6,,0.00,2,Rain,252
2013-5-18,84,80,75,68,66,63,73,64,57,30.02,29.98,29.95,10,10,10,15,8,,0.01,4,Rain,159
2013-5-19,84,80,73,68,67,64,82,65,55,29.99,29.95,29.90,10,10,10,16,7,,0.04,5,Rain,193
2013-5-20,82,78,73,68,67,65,82,68,56,29.99,29.94,29.90,10,10,10,12,7,,0.00,1,,182
2013-5-21,84,78,73,68,65,59,71,61,50,30.01,29.97,29.93,10,10,10,13,7,,0.00,2,,170
2013-5-22,86,80,75,70,68,64,74,65,55,30.04,29.99,29.95,10,10,10,14,6,,0.00,4,,322
2013-5-23,86,80,75,71,68,63,76,66,56,30.03,30.00,29.95,10,10,10,18,7,21,0.00,3,,204
2013-5-24,86,80,75,70,65,59,74,60,44,30.03,30.00,29.97,10,10,10,15,10,24,0.00,2,,73
2013-5-25,84,80,73,70,67,64,82,69,56,30.03,30.00,29.96,10,10,5,13,7,,0.02,5,Rain,135
2013-5-26,84,78,73,71,67,58,85,69,52,30.06,30.02,29.98,10,10,10,17,7,,0.00,5,Rain,124
2013-5-27,84,78,72,69,66,57,78,63,52,30.09,30.04,30.00,10,10,10,14,8,,0.00,1,,178
2013-5-28,84,78,73,71,69,66,87,71,58,30.09,30.05,30.01,10,10,10,14,8,21,0.11,3,Rain,213
2013-5-29,84,80,75,71,70,66,87,71,59,30.06,30.03,29.98,10,10,10,12,6,,0.04,5,Rain,258
2013-5-30,84,78,73,70,69,66,81,71,63,30.02,29.97,29.92,10,10,10,10,5,,0.00,5,,229
2013-5-31,84,80,77,71,70,68,76,70,61,30.03,29.97,29.93,10,10,10,10,5,,0.00,6,,241